Location: Novokuznetsk
(53.7500°N, 87.1000°E)
Time: 20:12:37
(UTC+06:00)

ISS - Pass Details

Date: 02 March 2021
Orbit: 418 x 422 km, 51.6° (Epoch: 16 April)

Event Time Altitude Azimuth Distance (km) Brightness Sun altitude
Exits shadow 05:57:34 14° 262° (W) 1,270 -2.0 -9.7°
Maximum altitude 06:00:19 60° 184° (S) 484 -3.5 -9.3°
Drops below altitude 10° 06:03:38 10° 103° (ESE) 1,500 0.6 -8.8°
Sets 06:05:45 0° 100° (E) 2,364 2.2 -8.5°
